| time (UTC) | temp F | wind direction | speed MPH | gust MPH | rain 1hr in | rain 24hr in | rain mn in | humidity % | barometer mb |
| 20260507093205 | 60 | 64 | 0.0 | 3.0 | 0.00 | 0.00 | 0.00 | 74 | 1021.5 |
| 20260507092630 | 60 | 88 | 0.0 | 3.0 | 0.00 | 0.00 | 0.00 | 74 | 1021.5 |
| 20260507092005 | 60 | 89 | 2.0 | 5.0 | 0.00 | 0.00 | 0.00 | 73 | 1021.5 |
| 20260507091405 | 60 | 84 | 3.0 | 5.0 | 0.00 | 0.00 | 0.00 | 73 | 1021.5 |
| 20260507090805 | 60 | 104 | 3.0 | 4.0 | 0.00 | 0.00 | 0.00 | 73 | 1021.4 |
| 20260507090205 | 60 | 71 | 3.0 | 7.0 | 0.00 | 0.00 | 0.00 | 73 | 1021.4 |
| 20260507085643 | 60 | 96 | 4.0 | 6.0 | 0.00 | 0.00 | 0.00 | 73 | 1021.5 |
| 20260507085030 | 60 | 88 | 4.0 | 7.0 | 0.00 | 0.00 | 0.00 | 73 | 1021.6 |
| 20260507084443 | 59 | 92 | 4.0 | 6.0 | 0.00 | 0.00 | 0.00 | 74 | 1021.6 |
| 20260507083806 | 59 | 92 | 3.0 | 5.0 | 0.00 | 0.00 | 0.00 | 74 | 1021.6 |
| 20260507083230 | 59 | 77 | 2.0 | 7.0 | 0.00 | 0.00 | 0.00 | 74 | 1021.7 |
| 20260507082605 | 59 | 77 | 4.0 | 5.0 | 0.00 | 0.00 | 0.00 | 74 | 1021.7 |
| 20260507082005 | 59 | 50 | 1.0 | 4.0 | 0.00 | 0.00 | 0.00 | 74 | 1021.7 |
| 20260507081405 | 59 | 82 | 0.0 | 7.0 | 0.00 | 0.00 | 0.00 | 72 | 1021.7 |
| 20260507080805 | 59 | 61 | 4.0 | 7.0 | 0.00 | 0.00 | 0.00 | 72 | 1021.7 |
| 20260507080206 | 58 | 65 | 0.0 | 5.0 | 0.00 | 0.00 | 0.00 | 73 | 1021.8 |
| 20260507075605 | 58 | 64 | 3.0 | 6.0 | 0.00 | 0.00 | 0.00 | 71 | 1021.9 |
| 20260507075005 | 59 | 68 | 2.0 | 6.0 | 0.00 | 0.00 | 0.00 | 70 | 1021.8 |
| 20260507074405 | 59 | 70 | 3.0 | 7.0 | 0.00 | 0.00 | 0.00 | 71 | 1021.9 |
| 20260507073805 | 57 | 84 | 5.0 | 8.0 | 0.00 | 0.00 | 0.00 | 70 | 1021.8 |
| 20260507073205 | 56 | 78 | 2.0 | 3.0 | 0.00 | 0.00 | 0.00 | 68 | 1021.9 |
| 20260507072605 | 57 | 127 | 2.0 | 5.0 | 0.00 | 0.00 | 0.00 | 67 | 1021.9 |
| 20260507072005 | 57 | 86 | 3.0 | 4.0 | 0.00 | 0.00 | 0.00 | 67 | 1021.9 |
| 20260507071430 | 56 | 63 | 0.0 | 3.0 | 0.00 | 0.00 | 0.00 | 69 | 1021.9 |
| 20260507070805 | 56 | 115 | 2.0 | 4.0 | 0.00 | 0.00 | 0.00 | 69 | 1022.0 |
| 20260507070205 | 56 | 45 | 2.0 | 3.0 | 0.00 | 0.00 | 0.00 | 69 | 1021.9 |
| 20260507065605 | 56 | 93 | 0.0 | 2.0 | 0.00 | 0.00 | 0.00 | 69 | 1022.0 |
| 20260507065005 | 57 | 63 | 0.0 | 2.0 | 0.00 | 0.00 | 0.00 | 67 | 1022.0 |
| 20260507064430 | 57 | 69 | 0.0 | 2.0 | 0.00 | 0.00 | 0.00 | 66 | 1022.0 |
| 20260507063805 | 58 | 65 | 0.0 | 4.0 | 0.00 | 0.00 | 0.00 | 65 | 1022.0 |
| 20260507063205 | 59 | 60 | 3.0 | 4.0 | 0.00 | 0.00 | 0.00 | 64 | 1022.1 |
| 20260507062605 | 59 | 87 | 2.0 | 5.0 | 0.00 | 0.00 | 0.00 | 62 | 1022.1 |
| 20260507062005 | 60 | 88 | 3.0 | 5.0 | 0.00 | 0.00 | 0.00 | 61 | 1022.1 |
| 20260507061405 | 60 | 78 | 3.0 | 7.0 | 0.00 | 0.00 | 0.00 | 60 | 1022.1 |
| 20260507060830 | 60 | 68 | 4.0 | 7.0 | 0.00 | 0.00 | 0.00 | 60 | 1022.1 |
| 20260507060205 | 59 | 96 | 5.0 | 4.0 | 0.00 | 0.00 | 0.00 | 61 | 1022.0 |
| 20260507055605 | 58 | 66 | 3.0 | 4.0 | 0.00 | 0.00 | 0.00 | 63 | 1022.1 |
| 20260507055005 | 58 | 58 | 2.0 | 3.0 | 0.00 | 0.00 | 0.00 | 62 | 1022.0 |
| 20260507054405 | 59 | 66 | 2.0 | 6.0 | 0.00 | 0.00 | 0.00 | 61 | 1022.0 |
| 20260507053805 | 59 | 80 | 4.0 | 6.0 | 0.00 | 0.00 | 0.00 | 61 | 1022.0 |
| 20260507053205 | 58 | 103 | 3.0 | 3.0 | 0.00 | 0.00 | 0.00 | 60 | 1022.0 |
| 20260507052605 | 59 | 79 | 2.0 | 3.0 | 0.00 | 0.00 | 0.00 | 59 | 1022.0 |
| 20260507052006 | 60 | 74 | 2.0 | 6.0 | 0.00 | 0.00 | 0.00 | 59 | 1022.0 |
| 20260507051405 | 61 | 77 | 2.0 | 4.0 | 0.00 | 0.00 | 0.00 | 58 | 1022.0 |
| 20260507050805 | 61 | 52 | 0.0 | 6.0 | 0.00 | 0.00 | 0.00 | 57 | 1022.0 |
| 20260507050205 | 61 | 66 | 0.0 | 4.0 | 0.00 | 0.00 | 0.00 | 59 | 1021.9 |
| 20260507045630 | 61 | 61 | 0.0 | 5.0 | 0.00 | 0.00 | 0.00 | 58 | 1021.8 |
| 20260507045005 | 62 | 63 | 3.0 | 6.0 | 0.00 | 0.00 | 0.00 | 58 | 1021.7 |
| 20260507043805 | 62 | 70 | 4.0 | 6.0 | 0.00 | 0.00 | 0.00 | 58 | 1021.5 |
| 20260507043218 | 62 | 75 | 0.0 | 4.0 | 0.00 | 0.00 | 0.00 | 59 | 1021.5 |
| 20260507042606 | 62 | 61 | 0.0 | 4.0 | 0.00 | 0.00 | 0.00 | 57 | 1021.4 |
| 20260507042005 | 65 | 79 | 0.0 | 4.0 | 0.00 | 0.00 | 0.00 | 52 | 1021.3 |
| 20260507041405 | 65 | 120 | 0.0 | 5.0 | 0.00 | 0.00 | 0.00 | 52 | 1021.3 |
| 20260507040830 | 64 | 84 | 0.0 | 3.0 | 0.00 | 0.00 | 0.00 | 52 | 1021.3 |
| 20260507040218 | 65 | 68 | 0.0 | 4.0 | 0.00 | 0.00 | 0.00 | 51 | 1021.1 |
| 20260507035605 | 67 | 330 | 0.0 | 4.0 | 0.00 | 0.00 | 0.00 | 50 | 1021.3 |
| 20260507035005 | 68 | 86 | 0.0 | 4.0 | 0.00 | 0.00 | 0.00 | 49 | 1021.1 |
| 20260507034405 | 67 | 71 | 2.0 | 6.0 | 0.00 | 0.00 | 0.00 | 51 | 1021.0 |
| 20260507033806 | 69 | 44 | 0.0 | 3.0 | 0.00 | 0.00 | 0.00 | 48 | 1021.0 |
| 20260507033217 | 70 | 144 | 0.0 | 6.0 | 0.00 | 0.00 | 0.00 | 46 | 1020.9 |
| 20260507032605 | 69 | 155 | 0.0 | 0.0 | 0.00 | 0.00 | 0.00 | 48 | 1020.8 |
| 20260507032005 | 69 | 322 | 0.0 | 3.0 | 0.00 | 0.00 | 0.00 | 50 | 1020.7 |
| 20260507031405 | 70 | 115 | 0.0 | 3.0 | 0.00 | 0.00 | 0.00 | 48 | 1020.6 |
| 20260507030805 | 71 | 177 | 0.0 | 7.0 | 0.00 | 0.00 | 0.00 | 47 | 1020.5 |
| 20260507030206 | 71 | 198 | 2.0 | 8.0 | 0.00 | 0.00 | 0.00 | 46 | 1020.4 |
| 20260507025606 | 71 | 221 | 0.0 | 8.0 | 0.00 | 0.00 | 0.00 | 46 | 1020.3 |
| 20260507025005 | 72 | 205 | 0.0 | 10.0 | 0.00 | 0.00 | 0.00 | 46 | 1020.2 |
| 20260507024405 | 72 | 230 | 2.0 | 10.0 | 0.00 | 0.00 | 0.00 | 45 | 1020.2 |
| 20260507023830 | 72 | 173 | 2.0 | 10.0 | 0.00 | 0.00 | 0.00 | 43 | 1020.1 |
| 20260507023205 | 73 | 237 | 2.0 | 13.0 | 0.00 | 0.00 | 0.00 | 42 | 1020.0 |
| 20260507022605 | 73 | 213 | 3.0 | 13.0 | 0.00 | 0.00 | 0.00 | 40 | 1019.9 |
| 20260507022005 | 73 | 203 | 3.0 | 13.0 | 0.00 | 0.00 | 0.00 | 41 | 1019.8 |
| 20260507021405 | 74 | 217 | 0.0 | 5.0 | 0.00 | 0.00 | 0.00 | 39 | 1019.8 |
| 20260507020805 | 74 | 159 | 2.0 | 6.0 | 0.00 | 0.00 | 0.00 | 37 | 1019.6 |
| 20260507020205 | 75 | 215 | 0.0 | 10.0 | 0.00 | 0.00 | 0.00 | 36 | 1019.5 |
| 20260507015605 | 76 | 230 | 4.0 | 9.0 | 0.00 | 0.00 | 0.00 | 34 | 1019.5 |
| 20260507015005 | 77 | 188 | 3.0 | 9.0 | 0.00 | 0.00 | 0.00 | 30 | 1019.3 |
| 20260507014430 | 78 | 165 | 0.0 | 11.0 | 0.00 | 0.00 | 0.00 | 26 | 1019.1 |
| 20260507013205 | 80 | 103 | 5.0 | 8.0 | 0.00 | 0.00 | 0.00 | 15 | 1018.5 |
| 20260507012630 | 79 | 98 | 3.0 | 10.0 | 0.00 | 0.00 | 0.00 | 16 | 1018.4 |
| 20260507012005 | 80 | 119 | 5.0 | 8.0 | 0.00 | 0.00 | 0.00 | 15 | 1018.3 |
| 20260507011417 | 79 | 94 | 0.0 | 4.0 | 0.00 | 0.00 | 0.00 | 15 | 1018.3 |
| 20260507010817 | 80 | 110 | 2.0 | 7.0 | 0.00 | 0.00 | 0.00 | 15 | 1018.3 |
| 20260507010205 | 81 | 120 | 3.0 | 8.0 | 0.00 | 0.00 | 0.00 | 14 | 1018.2 |
| 20260507005630 | 82 | 102 | 4.0 | 9.0 | 0.00 | 0.00 | 0.00 | 13 | 1018.2 |
| 20260507005030 | 82 | 121 | 3.0 | 11.0 | 0.00 | 0.00 | 0.00 | 13 | 1018.1 |
| 20260507004430 | 83 | 87 | 3.0 | 10.0 | 0.00 | 0.00 | 0.00 | 13 | 1018.0 |
| 20260507003805 | 83 | 135 | 6.0 | 16.0 | 0.00 | 0.00 | 0.00 | 13 | 1018.0 |
| 20260507003218 | 84 | 107 | 4.0 | 9.0 | 0.00 | 0.00 | 0.00 | 12 | 1018.0 |
| 20260507002605 | 85 | 79 | 0.0 | 5.0 | 0.00 | 0.00 | 0.00 | 12 | 1018.0 |
| 20260507002005 | 84 | 352 | 0.0 | 7.0 | 0.00 | 0.00 | 0.00 | 13 | 1018.0 |
| 20260507001405 | 85 | 347 | 0.0 | 8.0 | 0.00 | 0.00 | 0.00 | 13 | 1018.0 |
| 20260507000805 | 87 | 312 | 1.0 | 12.0 | 0.00 | 0.00 | 0.00 | 12 | 1018.0 |
| 20260507000205 | 88 | 253 | 3.0 | 15.0 | 0.00 | 0.00 | 0.00 | 11 | 1018.1 |
| 20260506235605 | 88 | 26 | 3.0 | 13.0 | 0.00 | 0.00 | 0.00 | 12 | 1018.0 |
| 20260506235005 | 88 | 334 | 3.0 | 18.0 | 0.00 | 0.00 | 0.00 | 10 | 1018.0 |
| 20260506234405 | 88 | 35 | 3.0 | 15.0 | 0.00 | 0.00 | 0.00 | 11 | 1018.0 |
| 20260506233805 | 88 | 52 | 0.0 | 10.0 | 0.00 | 0.00 | 0.00 | 11 | 1017.9 |
| 20260506233205 | 87 | 334 | 0.0 | 8.0 | 0.00 | 0.00 | 0.00 | 13 | 1018.0 |
| 20260506232605 | 88 | 316 | 0.0 | 11.0 | 0.00 | 0.00 | 0.00 | 12 | 1017.9 |
| 20260506232005 | 89 | 278 | 0.0 | 9.0 | 0.00 | 0.00 | 0.00 | 11 | 1017.9 |
| 20260506231406 | 89 | 295 | 2.0 | 9.0 | 0.00 | 0.00 | 0.00 | 11 | 1018.0 |
| 20260506230805 | 89 | 41 | 0.0 | 12.0 | 0.00 | 0.00 | 0.00 | 12 | 1018.0 |
| 20260506230230 | 88 | 143 | 0.0 | 12.0 | 0.00 | 0.00 | 0.00 | 12 | 1018.1 |
| 20260506225605 | 86 | 346 | 2.0 | 13.0 | 0.00 | 0.00 | 0.00 | 13 | 1018.1 |
| 20260506225005 | 88 | 317 | 0.0 | 13.0 | 0.00 | 0.00 | 0.00 | 12 | 1018.1 |
| 20260506224417 | 88 | 333 | 2.0 | 12.0 | 0.00 | 0.00 | 0.00 | 13 | 1018.2 |
| 20260506223805 | 89 | 343 | 2.0 | 9.0 | 0.00 | 0.00 | 0.00 | 14 | 1018.3 |
| 20260506223206 | 89 | 354 | 0.0 | 10.0 | 0.00 | 0.00 | 0.00 | 10 | 1018.3 |
| 20260506222630 | 89 | 350 | 1.0 | 11.0 | 0.00 | 0.00 | 0.00 | 14 | 1018.3 |
| 20260506222005 | 90 | 338 | 2.0 | 7.0 | 0.00 | 0.00 | 0.00 | 11 | 1018.3 |
| 20260506221418 | 90 | 314 | 0.0 | 13.0 | 0.00 | 0.00 | 0.00 | 11 | 1018.5 |
| 20260506220830 | 89 | 351 | 0.0 | 14.0 | 0.00 | 0.00 | 0.00 | 10 | 1018.6 |
| 20260506220205 | 90 | 310 | 1.0 | 17.0 | 0.00 | 0.00 | 0.00 | 13 | 1018.7 |
| 20260506215643 | 88 | 324 | 4.0 | 12.0 | 0.00 | 0.00 | 0.00 | 12 | 1018.6 |
| 20260506215006 | 89 | 331 | 0.0 | 9.0 | 0.00 | 0.00 | 0.00 | 11 | 1018.7 |
| 20260506214405 | 90 | 2 | 0.0 | 13.0 | 0.00 | 0.00 | 0.00 | 12 | 1018.8 |
| 20260506213805 | 89 | 354 | 2.0 | 11.0 | 0.00 | 0.00 | 0.00 | 9 | 1018.8 |
| 20260506213205 | 90 | 349 | 1.0 | 21.0 | 0.00 | 0.00 | 0.00 | 14 | 1018.9 |
| 20260506212605 | 90 | 40 | 3.0 | 13.0 | 0.00 | 0.00 | 0.00 | 11 | 1018.7 |
| 20260506212005 | 89 | 335 | 2.0 | 16.0 | 0.00 | 0.00 | 0.00 | 14 | 1019.0 |
| 20260506211430 | 89 | 91 | 1.0 | 13.0 | 0.00 | 0.00 | 0.00 | 12 | 1019.1 |
| 20260506210805 | 88 | 314 | 6.0 | 21.0 | 0.00 | 0.00 | 0.00 | 10 | 1019.2 |
| 20260506210205 | 88 | 62 | 3.0 | 14.0 | 0.00 | 0.00 | 0.00 | 13 | 1019.2 |
| 20260506205605 | 89 | 335 | 6.0 | 11.0 | 0.00 | 0.00 | 0.00 | 12 | 1019.4 |
| 20260506205005 | 90 | 317 | 0.0 | 18.0 | 0.00 | 0.00 | 0.00 | 11 | 1019.3 |
| 20260506204405 | 89 | 343 | 0.0 | 13.0 | 0.00 | 0.00 | 0.00 | 14 | 1019.3 |
| 20260506203805 | 89 | 19 | 1.0 | 17.0 | 0.00 | 0.00 | 0.00 | 12 | 1019.4 |
| 20260506203205 | 89 | 0 | 0.0 | 21.0 | 0.00 | 0.00 | 0.00 | 10 | 1019.6 |
| 20260506202605 | 89 | 275 | 0.0 | 14.0 | 0.00 | 0.00 | 0.00 | 17 | 1019.6 |
| 20260506202017 | 90 | 341 | 2.0 | 13.0 | 0.00 | 0.00 | 0.00 | 11 | 1019.6 |
| 20260506201430 | 89 | 44 | 0.0 | 11.0 | 0.00 | 0.00 | 0.00 | 12 | 1019.6 |
| 20260506200805 | 89 | 59 | 0.0 | 13.0 | 0.00 | 0.00 | 0.00 | 11 | 1019.8 |
| 20260506200205 | 87 | 28 | 1.0 | 16.0 | 0.00 | 0.00 | 0.00 | 12 | 1019.8 |
| 20260506195605 | 88 | 2 | 4.0 | 20.0 | 0.00 | 0.00 | 0.00 | 11 | 1019.9 |
| 20260506195005 | 88 | 8 | 1.0 | 20.0 | 0.00 | 0.00 | 0.00 | 12 | 1019.9 |
| 20260506194405 | 87 | 296 | 4.0 | 17.0 | 0.00 | 0.00 | 0.00 | 11 | 1020.0 |
| 20260506193842 | 88 | 324 | 6.0 | 21.0 | 0.00 | 0.00 | 0.00 | 13 | 1020.2 |
| 20260506193206 | 88 | 289 | 3.0 | 22.0 | 0.00 | 0.00 | 0.00 | 12 | 1020.0 |
| 20260506192605 | 87 | 50 | 3.0 | 16.0 | 0.00 | 0.00 | 0.00 | 11 | 1020.2 |
| 20260506192006 | 88 | 12 | 4.0 | 25.0 | 0.00 | 0.00 | 0.00 | 10 | 1020.3 |
| 20260506191406 | 87 | 315 | 0.0 | 12.0 | 0.00 | 0.00 | 0.00 | 12 | 1020.1 |
| 20260506190805 | 87 | 340 | 0.0 | 21.0 | 0.00 | 0.00 | 0.00 | 13 | 1020.4 |
| 20260506190205 | 88 | 55 | 3.0 | 8.0 | 0.00 | 0.00 | 0.00 | 10 | 1020.4 |
| 20260506185605 | 88 | 352 | 0.0 | 13.0 | 0.00 | 0.00 | 0.00 | 13 | 1020.4 |
| 20260506185005 | 87 | 341 | 0.0 | 14.0 | 0.00 | 0.00 | 0.00 | 12 | 1020.4 |
| 20260506184405 | 88 | 348 | 0.0 | 12.0 | 0.00 | 0.00 | 0.00 | 15 | 1020.5 |
| 20260506183205 | 86 | 316 | 0.0 | 21.0 | 0.00 | 0.00 | 0.00 | 13 | 1020.5 |
| 20260506182606 | 86 | 287 | 4.0 | 12.0 | 0.00 | 0.00 | 0.00 | 12 | 1020.7 |
| 20260506182005 | 87 | 9 | 0.0 | 10.0 | 0.00 | 0.00 | 0.00 | 14 | 1020.8 |
| 20260506181406 | 85 | 113 | 0.0 | 14.0 | 0.00 | 0.00 | 0.00 | 12 | 1020.8 |
| 20260506180818 | 86 | 39 | 0.0 | 13.0 | 0.00 | 0.00 | 0.00 | 11 | 1020.9 |
| 20260506180205 | 86 | 24 | 3.0 | 14.0 | 0.00 | 0.00 | 0.00 | 13 | 1021.1 |
| 20260506175605 | 87 | 87 | 0.0 | 11.0 | 0.00 | 0.00 | 0.00 | 11 | 1021.0 |
| 20260506175005 | 86 | 15 | 0.0 | 10.0 | 0.00 | 0.00 | 0.00 | 12 | 1021.0 |
| 20260506174405 | 87 | 0 | 0.0 | 12.0 | 0.00 | 0.00 | 0.00 | 14 | 1021.0 |
| 20260506173805 | 85 | 331 | 4.0 | 13.0 | 0.00 | 0.00 | 0.00 | 15 | 1021.0 |
| 20260506173205 | 86 | 21 | 0.0 | 17.0 | 0.00 | 0.00 | 0.00 | 13 | 1021.0 |
| 20260506172605 | 85 | 336 | 4.0 | 18.0 | 0.00 | 0.00 | 0.00 | 16 | 1021.2 |
| 20260506172006 | 85 | 344 | 3.0 | 12.0 | 0.00 | 0.00 | 0.00 | 14 | 1021.2 |
| 20260506171418 | 84 | 284 | 4.0 | 11.0 | 0.00 | 0.00 | 0.00 | 13 | 1021.1 |
| 20260506170818 | 83 | 261 | 3.0 | 15.0 | 0.00 | 0.00 | 0.00 | 16 | 1021.2 |
| 20260506170205 | 83 | 346 | 2.0 | 6.0 | 0.00 | 0.00 | 0.00 | 16 | 1021.3 |
| 20260506165617 | 82 | 319 | 2.0 | 9.0 | 0.00 | 0.00 | 0.00 | 14 | 1021.4 |
| 20260506165005 | 82 | 262 | 0.0 | 6.0 | 0.00 | 0.00 | 0.00 | 13 | 1021.4 |
| 20260506164406 | 81 | 269 | 0.0 | 8.0 | 0.00 | 0.00 | 0.00 | 15 | 1021.4 |
| 20260506163805 | 81 | 269 | 6.0 | 10.0 | 0.00 | 0.00 | 0.00 | 15 | 1021.4 |
| 20260506163205 | 81 | 135 | 0.0 | 8.0 | 0.00 | 0.00 | 0.00 | 13 | 1021.4 |
| 20260506162605 | 81 | 300 | 2.0 | 7.0 | 0.00 | 0.00 | 0.00 | 15 | 1021.4 |
| 20260506162005 | 80 | 302 | 0.0 | 8.0 | 0.00 | 0.00 | 0.00 | 14 | 1021.4 |
| 20260506161430 | 81 | 338 | 3.0 | 7.0 | 0.00 | 0.00 | 0.00 | 19 | 1021.5 |
| 20260506160830 | 80 | 308 | 3.0 | 8.0 | 0.00 | 0.00 | 0.00 | 16 | 1021.5 |
| 20260506160205 | 79 | 63 | 0.0 | 5.0 | 0.00 | 0.00 | 0.00 | 15 | 1021.5 |
| 20260506155605 | 79 | 96 | 3.0 | 6.0 | 0.00 | 0.00 | 0.00 | 14 | 1021.5 |
| 20260506155005 | 79 | 107 | 0.0 | 4.0 | 0.00 | 0.00 | 0.00 | 15 | 1021.6 |
| 20260506154405 | 78 | 124 | 1.0 | 6.0 | 0.00 | 0.00 | 0.00 | 14 | 1021.6 |
| 20260506153830 | 77 | 83 | 2.0 | 7.0 | 0.00 | 0.00 | 0.00 | 14 | 1021.6 |
| 20260506153205 | 78 | 87 | 0.0 | 5.0 | 0.00 | 0.00 | 0.00 | 15 | 1021.6 |
| 20260506152605 | 77 | 329 | 0.0 | 5.0 | 0.00 | 0.00 | 0.00 | 15 | 1021.7 |
| 20260506152005 | 76 | 114 | 2.0 | 5.0 | 0.00 | 0.00 | 0.00 | 16 | 1021.7 |
| 20260506151405 | 77 | 324 | 0.0 | 2.0 | 0.00 | 0.00 | 0.00 | 17 | 1021.7 |
| 20260506150805 | 76 | 299 | 0.0 | 4.0 | 0.00 | 0.00 | 0.00 | 18 | 1021.7 |
| 20260506150206 | 76 | 274 | 0.0 | 4.0 | 0.00 | 0.00 | 0.00 | 20 | 1021.8 |
| 20260506145605 | 76 | 241 | 0.0 | 5.0 | 0.00 | 0.00 | 0.00 | 20 | 1021.8 |
| 20260506145030 | 75 | 272 | 0.0 | 3.0 | 0.00 | 0.00 | 0.00 | 22 | 1021.8 |
| 20260506144405 | 75 | 272 | 0.0 | 3.0 | 0.00 | 0.00 | 0.00 | 21 | 1021.8 |
| 20260506143805 | 73 | 237 | 0.0 | 3.0 | 0.00 | 0.00 | 0.00 | 25 | 1021.9 |
| 20260506143205 | 72 | 309 | 0.0 | 2.0 | 0.00 | 0.00 | 0.00 | 26 | 1022.0 |
| 20260506142605 | 70 | 288 | 0.0 | 0.0 | 0.00 | 0.00 | 0.00 | 28 | 1022.0 |
| 20260506142043 | 68 | 208 | 0.0 | 0.0 | 0.00 | 0.00 | 0.00 | 32 | 1022.0 |
| 20260506141405 | 67 | 220 | 0.0 | 0.0 | 0.00 | 0.00 | 0.00 | 36 | 1021.9 |
| 20260506140805 | 65 | 220 | 0.0 | 2.0 | 0.00 | 0.00 | 0.00 | 34 | 1021.9 |
| 20260506140206 | 63 | 70 | 0.0 | 6.0 | 0.00 | 0.00 | 0.00 | 37 | 1021.9 |
| 20260506135605 | 62 | 105 | 0.0 | 5.0 | 0.00 | 0.00 | 0.00 | 39 | 1021.8 |
| 20260506135005 | 61 | 98 | 2.0 | 4.0 | 0.00 | 0.00 | 0.00 | 39 | 1021.9 |
| 20260506134406 | 60 | 73 | 2.0 | 4.0 | 0.00 | 0.00 | 0.00 | 39 | 1021.8 |
| 20260506133805 | 59 | 56 | 1.0 | 3.0 | 0.00 | 0.00 | 0.00 | 44 | 1021.8 |
| 20260506133205 | 58 | 91 | 3.0 | 4.0 | 0.00 | 0.00 | 0.00 | 43 | 1021.7 |
| 20260506132630 | 56 | 71 | 2.0 | 3.0 | 0.00 | 0.00 | 0.00 | 45 | 1021.7 |
| 20260506132005 | 56 | 74 | 1.0 | 5.0 | 0.00 | 0.00 | 0.00 | 43 | 1021.6 |
| 20260506131405 | 54 | 115 | 3.0 | 6.0 | 0.00 | 0.00 | 0.00 | 48 | 1021.5 |
| 20260506130805 | 52 | 106 | 3.0 | 5.0 | 0.00 | 0.00 | 0.00 | 51 | 1021.5 |
| 20260506130205 | 49 | 75 | 2.0 | 5.0 | 0.00 | 0.00 | 0.00 | 57 | 1021.3 |
| 20260506125605 | 47 | 67 | 2.0 | 6.0 | 0.00 | 0.00 | 0.00 | 60 | 1021.3 |
| 20260506125005 | 47 | 134 | 2.0 | 4.0 | 0.00 | 0.00 | 0.00 | 61 | 1021.3 |
| 20260506124405 | 44 | 83 | 0.0 | 3.0 | 0.00 | 0.00 | 0.00 | 67 | 1021.3 |
| 20260506123805 | 43 | 116 | 0.0 | 2.0 | 0.00 | 0.00 | 0.00 | 68 | 1021.2 |
| 20260506123230 | 42 | 92 | 0.0 | 2.0 | 0.00 | 0.00 | 0.00 | 69 | 1021.3 |
| 20260506122605 | 42 | 101 | 0.0 | 2.0 | 0.00 | 0.00 | 0.00 | 68 | 1021.2 |
| 20260506122005 | 42 | 85 | 0.0 | 3.0 | 0.00 | 0.00 | 0.00 | 68 | 1021.1 |
| 20260506121405 | 43 | 116 | 2.0 | 3.0 | 0.00 | 0.00 | 0.00 | 68 | 1021.0 |
| 20260506120818 | 43 | 58 | 0.0 | 3.0 | 0.00 | 0.00 | 0.00 | 66 | 1021.0 |
| 20260506120205 | 45 | 129 | 0.0 | 5.0 | 0.00 | 0.00 | 0.00 | 61 | 1021.0 |
| 20260506115605 | 47 | 100 | 2.0 | 5.0 | 0.00 | 0.00 | 0.00 | 60 | 1020.9 |
| 20260506115005 | 45 | 145 | 2.0 | 6.0 | 0.00 | 0.00 | 0.00 | 65 | 1020.9 |
| 20260506114405 | 44 | 117 | 1.0 | 5.0 | 0.00 | 0.00 | 0.00 | 65 | 1020.9 |
| 20260506113805 | 43 | 142 | 3.0 | 5.0 | 0.00 | 0.00 | 0.00 | 67 | 1020.8 |
| 20260506113205 | 43 | 137 | 2.0 | 6.0 | 0.00 | 0.00 | 0.00 | 68 | 1020.8 |
| 20260506112605 | 42 | 129 | 2.0 | 6.0 | 0.00 | 0.00 | 0.00 | 66 | 1020.8 |
| 20260506112005 | 43 | 122 | 2.0 | 4.0 | 0.00 | 0.00 | 0.00 | 64 | 1020.8 |
| 20260506111405 | 44 | 114 | 0.0 | 7.0 | 0.00 | 0.00 | 0.00 | 66 | 1020.8 |
| 20260506110830 | 43 | 106 | 2.0 | 6.0 | 0.00 | 0.00 | 0.00 | 67 | 1020.8 |
| 20260506110205 | 43 | 113 | 0.0 | 3.0 | 0.00 | 0.00 | 0.00 | 62 | 1020.8 |
| 20260506105655 | 45 | 81 | 0.0 | 2.0 | 0.00 | 0.00 | 0.00 | 61 | 1020.7 |
| 20260506105005 | 45 | 74 | 0.0 | 4.0 | 0.00 | 0.00 | 0.00 | 63 | 1020.6 |
| 20260506104405 | 45 | 6 | 0.0 | 5.0 | 0.00 | 0.00 | 0.00 | 63 | 1020.6 |
| 20260506103805 | 45 | 62 | 0.0 | 4.0 | 0.00 | 0.00 | 0.00 | 62 | 1020.6 |
| 20260506103217 | 46 | 110 | 2.0 | 4.0 | 0.00 | 0.00 | 0.00 | 61 | 1020.6 |
| 20260506102605 | 44 | 143 | 0.0 | 3.0 | 0.00 | 0.00 | 0.00 | 65 | 1020.5 |
| 20260506102017 | 44 | 102 | 2.0 | 4.0 | 0.00 | 0.00 | 0.00 | 64 | 1020.4 |
| 20260506101405 | 43 | 90 | 0.0 | 6.0 | 0.00 | 0.00 | 0.00 | 63 | 1020.4 |
| 20260506100805 | 44 | 67 | 0.0 | 2.0 | 0.00 | 0.00 | 0.00 | 62 | 1020.2 |
| 20260506100205 | 44 | 39 | 0.0 | 4.0 | 0.00 | 0.00 | 0.00 | 63 | 1020.2 |
| 20260506095618 | 44 | 50 | 0.0 | 3.0 | 0.00 | 0.00 | 0.00 | 62 | 1020.2 |
| 20260506095042 | 44 | 77 | 0.0 | 4.0 | 0.00 | 0.00 | 0.00 | 62 | 1020.0 |
| 20260506094405 | 45 | 87 | 3.0 | 6.0 | 0.00 | 0.00 | 0.00 | 59 | 1019.9 |
| 20260506093805 | 44 | 128 | 1.0 | 3.0 | 0.00 | 0.00 | 0.00 | 64 | 1019.8 |